Location: Bletchingley
(51.2333°N, 0.1000°W)
Time: 23:23:41
(UTC+00:00)

SPOT 5 - Pass Details

Date: 18 September 2020
Orbit: 623 x 815 km, 98.3° (Epoch: 30 October)

Event Time Altitude Azimuth Distance (km) Brightness Sun altitude
Exits shadow 20:40:13 35° 64° (ENE) 1,251 3.8 -23.3°
Maximum altitude 20:40:15 35° 63° (ENE) 1,251 3.8 -23.3°
Drops below altitude 10° 20:45:02 10° 359° (N) 2,399 6.0 -23.9°
Sets 20:47:35 0° 351° (N) 3,346 7.0 -24.2°
